Date,TemperatureHighF,TemperatureAvgF,TemperatureLowF,DewpointHighF,DewpointAvgF,DewpointLowF,HumidityHigh,HumidityAvg,HumidityLow,PressureMaxIn,PressureMinIn,WindSpeedMaxMPH,WindSpeedAvgMPH,GustSpeedMaxMPH,PrecipitationSumIn
2013-1-1,42,39,32,42,39,31,100,99,95,0.00,40.00,8,4,17,0.75
2013-1-2,34,30,25,31,24,21,96,80,59,0.00,40.00,6,4,12,0.02
2013-1-3,43,31,22,28,23,20,94,74,39,0.00,40.00,6,4,11,0.00
2013-1-4,46,35,25,31,26,23,94,71,42,0.00,40.00,5,4,14,0.00
2013-1-5,46,38,29,33,27,24,84,65,46,0.00,40.00,7,5,14,0.00
2013-1-6,51,39,28,38,33,26,99,80,45,0.00,40.00,9,6,19,0.00
2013-1-7,50,35,23,27,24,21,94,67,36,0.00,40.00,8,6,13,0.00
2013-1-8,58,46,34,40,34,24,80,64,44,0.00,40.00,8,6,15,0.00
2013-1-9,54,52,49,54,50,39,100,95,65,0.00,40.00,10,6,19,0.87
2013-1-10,67,61,53,64,60,53,100,97,84,0.00,40.00,16,10,35,0.99
2013-1-11,68,62,56,64,55,49,97,80,54,0.00,40.00,15,9,34,0.40
2013-1-12,72,67,64,67,65,62,100,92,78,0.00,40.00,12,9,25,0.02
2013-1-13,70,48,31,64,46,28,100,94,81,0.00,40.00,14,8,30,4.10
2013-1-14,31,29,26,29,25,22,95,86,78,0.00,40.00,10,7,22,0.04
2013-1-15,32,29,26,32,28,24,98,94,89,0.00,40.00,8,6,20,0.45
2013-1-16,33,31,30,32,31,29,98,97,95,0.00,40.00,4,3,10,0.19
2013-1-17,46,35,30,40,32,29,98,90,68,0.00,40.00,9,5,25,0.08
2013-1-18,52,37,26,31,26,23,96,69,32,0.00,40.00,7,5,12,0.01
2013-1-19,59,45,34,35,29,25,82,57,31,0.00,40.00,11,9,19,0.00
2013-1-20,58,45,35,36,30,23,87,60,28,0.00,40.00,8,6,15,0.00
2013-1-21,42,33,26,23,18,14,70,54,32,0.00,40.00,10,6,21,0.00
2013-1-22,38,30,22,18,13,6,77,52,29,0.00,40.00,8,5,13,0.00
2013-1-23,55,40,26,35,26,15,80,59,41,0.00,40.00,10,6,15,0.00
2013-1-24,41,38,33,36,20,10,86,51,30,0.00,40.00,10,8,23,0.00
2013-1-25,44,37,31,42,31,16,99,81,42,0.00,40.00,11,5,22,0.22
2013-1-26,51,39,28,37,32,28,99,78,43,0.00,40.00,8,4,13,0.02
2013-1-27,58,48,39,44,39,30,91,70,57,0.00,40.00,11,7,22,0.01
2013-1-28,69,59,52,57,52,40,95,78,61,0.00,40.00,11,9,24,0.04
2013-1-29,71,64,56,62,59,55,99,85,70,0.00,40.00,21,11,41,0.02
2013-1-30,71,51,35,65,45,23,100,80,61,0.00,40.00,22,10,74,1.69
2013-1-31,52,42,27,32,26,23,96,56,34,0.00,40.00,12,7,33,0.00
2013-2-1,34,26,16,30,13,8,96,58,36,0.00,40.00,8,4,31,0.05
2013-2-2,49,36,24,32,25,13,85,65,47,0.00,40.00,8,6,19,0.02
2013-2-3,55,42,34,32,29,24,87,62,34,0.00,40.00,11,6,26,0.02
2013-2-4,56,43,35,44,32,24,89,67,35,0.00,40.00,11,6,20,0.04
2013-2-5,65,51,40,47,42,39,99,76,40,0.00,40.00,7,4,14,0.02
2013-2-6,62,49,37,42,37,30,99,68,40,0.00,40.00,8,6,15,0.00
2013-2-7,68,57,50,50,43,32,78,59,48,0.00,40.00,11,6,16,0.00
2013-2-8,57,43,30,53,40,29,100,87,71,0.00,40.00,10,6,22,0.29
2013-2-9,53,41,29,34,30,28,97,70,39,0.00,40.00,8,6,15,0.01
2013-2-10,59,52,47,57,46,34,99,81,55,0.00,40.00,15,10,32,0.87
2013-2-11,58,48,43,57,35,26,97,62,33,0.00,40.00,8,5,19,0.44
2013-2-12,52,44,38,41,35,31,96,72,49,0.00,40.00,11,6,19,0.13
2013-2-13,43,40,36,42,38,35,99,93,82,0.00,40.00,8,5,17,0.21
2013-2-14,62,46,32,40,32,27,99,65,29,0.00,40.00,10,7,20,0.01
2013-2-15,53,44,32,37,31,23,87,64,34,0.00,40.00,8,6,22,0.00
2013-2-16,42,32,24,23,17,12,74,54,35,0.00,40.00,9,5,22,0.00
2013-2-17,52,38,23,23,19,14,69,48,28,0.00,40.00,9,7,21,0.00
2013-2-18,61,49,40,49,37,22,97,65,45,0.00,40.00,17,9,36,0.61
2013-2-19,50,41,32,49,29,21,97,65,33,0.00,40.00,0,0,0,0.66
2013-2-20,36,32,27,24,15,12,72,51,37,0.00,40.00,0,0,0,0.01
2013-2-21,45,37,31,45,27,17,99,71,39,0.00,40.00,0,0,0,0.94
2013-2-22,52,44,39,46,41,36,100,89,63,0.00,40.00,0,0,0,0.15
2013-2-23,52,39,29,36,29,27,95,72,40,0.00,40.00,0,0,0,0.00
2013-2-24,59,42,28,29,26,24,93,58,27,0.00,40.00,0,0,0,0.00
2013-2-25,63,50,38,50,33,24,94,55,26,0.00,40.00,0,0,1,0.10
2013-2-26,52,45,39,52,41,33,99,85,69,0.00,40.00,0,0,5,0.36
2013-2-27,44,40,38,35,32,29,88,73,63,0.00,40.00,0,0,0,0.01
2013-2-28,40,37,31,31,28,25,85,69,56,0.00,40.00,0,0,0,0.00
2013-3-1,38,34,32,33,31,28,96,86,71,0.00,40.00,0,0,10,0.02
2013-3-2,33,31,29,31,27,23,97,85,74,0.00,40.00,0,0,0,0.07
2013-3-3,46,34,23,24,18,15,86,54,30,0.00,40.00,0,0,0,0.01
2013-3-4,67,50,33,41,27,16,59,42,26,0.00,40.00,0,0,0,0.01
2013-3-5,59,48,33,56,40,23,98,76,52,0.00,40.00,0,0,0,0.70
2013-3-6,42,35,29,27,24,20,85,65,53,0.00,40.00,0,0,0,0.02
2013-3-7,53,39,27,29,27,24,90,66,37,0.00,40.00,0,0,0,0.00
2013-3-8,64,45,29,30,25,18,91,54,17,0.00,40.00,0,0,0,0.00
2013-3-9,74,57,46,36,29,24,59,35,21,0.00,40.00,0,0,0,0.00
2013-3-10,66,58,52,53,45,36,100,66,39,0.00,40.00,0,0,0,1.51
2013-3-11,52,43,33,52,38,31,100,84,61,0.00,40.00,0,0,0,2.61
2013-3-12,56,41,30,32,27,22,97,63,27,0.00,40.00,0,0,0,0.02
2013-3-13,50,41,33,31,24,20,73,52,34,0.00,40.00,0,0,0,0.00
2013-3-14,59,43,29,29,22,19,68,48,24,0.00,40.00,0,0,0,0.00
2013-3-15,79,60,41,46,39,29,72,48,30,0.00,40.00,0,0,0,0.00
2013-3-16,79,67,59,53,49,44,72,54,38,0.00,40.00,0,0,0,0.00
2013-3-17,66,58,51,54,50,46,90,76,58,0.00,40.00,0,0,0,0.00
2013-3-18,66,57,43,60,52,42,97,86,66,0.00,40.00,0,0,0,0.48
2013-3-19,58,47,37,42,29,17,99,58,20,0.00,40.00,0,0,0,0.02
2013-3-20,55,45,36,32,25,13,66,46,31,0.00,40.00,0,0,0,0.00
2013-3-21,48,37,24,25,15,8,70,45,21,0.00,40.00,0,0,0,0.00
2013-3-22,50,41,34,44,36,25,98,83,57,0.00,40.00,0,0,0,0.08
2013-3-23,55,48,44,50,45,41,99,88,70,0.00,40.00,0,0,0,0.16
2013-3-24,51,46,36,51,41,26,100,85,63,0.00,40.00,0,0,0,0.43
2013-3-25,38,35,32,26,23,20,70,62,54,0.00,40.00,0,0,0,0.01
2013-3-26,43,36,31,28,26,23,85,67,48,0.00,40.00,0,0,0,0.00
2013-3-27,56,39,28,25,24,23,83,60,28,0.00,40.00,7,2,15,0.00
2013-3-28,67,60,47,29,27,23,48,30,20,0.00,40.00,5,3,11,0.00
2013-3-29,55,50,44,49,38,28,99,67,48,0.00,40.00,4,2,9,0.01
2013-3-30,56,52,45,55,49,-100,100,97,75,0.00,40.00,4,2,11,0.23
2013-3-31,63,55,46,58,52,46,100,92,64,0.00,40.00,7,2,13,0.30
2013-4-1,66,54,41,50,42,37,100,71,36,0.00,40.00,7,4,16,0.07
2013-4-2,48,45,42,38,26,22,67,48,37,0.00,40.00,6,4,15,0.00
2013-4-3,54,47,41,27,21,17,57,37,25,0.00,40.00,7,4,18,0.00
2013-4-4,49,44,40,46,40,26,100,89,40,0.00,40.00,4,3,11,0.42
2013-4-5,68,55,41,45,39,32,100,62,28,0.00,40.00,5,3,13,0.08
2013-4-6,76,60,43,41,38,35,85,49,23,0.00,40.00,8,4,21,0.01
2013-4-7,74,64,56,52,47,41,77,56,39,0.00,40.00,9,5,21,0.00
2013-4-8,80,66,55,57,54,49,84,66,37,0.00,40.00,9,4,21,0.00
2013-4-9,80,70,61,64,61,56,88,75,57,0.00,40.00,8,4,22,0.00
2013-4-10,85,76,69,64,61,59,83,61,43,0.00,40.00,10,6,20,0.00
2013-4-11,76,59,44,65,56,43,100,92,56,0.00,40.00,8,4,23,2.98
2013-4-12,68,52,35,43,40,35,100,70,32,0.00,40.00,8,3,19,0.01
2013-4-13,75,57,40,42,37,33,89,55,22,0.00,40.00,5,3,11,0.00
2013-4-14,71,62,53,51,46,40,68,57,41,0.00,40.00,9,5,25,0.00
2013-4-15,82,68,56,60,56,50,91,69,44,0.00,40.00,7,5,17,0.00
2013-4-16,84,73,66,69,66,60,99,80,57,0.00,40.00,7,4,17,0.00
2013-4-17,88,76,66,68,66,62,100,72,45,0.00,40.00,8,4,24,0.00
2013-4-18,83,73,50,67,62,49,96,71,45,0.00,40.00,9,7,31,1.76
2013-4-19,51,44,36,49,34,30,96,72,45,0.00,40.00,7,5,19,1.97
2013-4-20,67,50,32,43,33,28,98,63,26,0.00,40.00,6,3,15,0.00
2013-4-21,71,56,41,37,33,25,80,46,19,0.00,40.00,6,3,17,0.00
2013-4-22,76,60,45,47,42,35,81,55,29,0.00,40.00,7,3,17,0.00
2013-4-23,76,64,51,58,54,47,96,72,50,0.00,40.00,8,4,22,0.00
2013-4-24,67,52,38,60,46,37,97,81,64,0.00,40.00,7,4,19,0.31
2013-4-25,71,52,33,45,35,30,99,61,23,0.00,40.00,6,2,11,0.13
2013-4-26,64,53,41,50,43,37,97,71,40,0.00,40.00,5,3,14,0.34
2013-4-27,71,58,51,65,57,50,99,94,82,0.00,40.00,6,3,15,1.49
2013-4-28,66,60,50,64,56,50,100,87,64,0.00,40.00,6,4,13,0.19
2013-4-29,80,60,47,56,51,47,100,78,39,0.00,40.00,4,2,10,0.00
2013-4-30,84,73,53,55,51,47,97,51,28,0.00,40.00,7,3,15,0.00
2013-5-1,81,70,60,62,58,54,82,67,45,0.00,40.00,6,3,17,0.00
2013-5-2,76,68,62,62,58,54,89,71,57,0.00,40.00,5,3,13,0.00
2013-5-3,68,58,40,59,53,39,97,85,67,0.00,40.00,8,5,19,1.41
2013-5-4,60,47,31,47,39,31,98,78,44,0.00,40.00,5,2,17,0.20
2013-5-5,60,50,45,47,45,44,98,84,58,0.00,40.00,6,3,16,0.07
2013-5-6,63,55,48,58,52,47,98,91,72,0.00,40.00,5,3,12,0.02
2013-5-7,73,60,52,60,55,52,100,86,53,0.00,40.00,3,2,8,0.01
2013-5-8,82,66,51,62,55,51,100,73,36,0.00,40.00,4,2,11,0.00
2013-5-9,81,68,56,62,59,55,99,76,47,0.00,40.00,6,2,16,0.00
2013-5-10,74,67,63,66,61,-100,99,88,71,0.00,40.00,6,3,28,0.91
2013-5-11,73,62,54,63,54,-100,99,80,47,0.00,40.00,5,3,13,0.01
2013-5-12,66,56,42,54,36,28,92,53,25,0.00,40.00,7,4,17,0.01
2013-5-13,76,56,37,50,40,36,96,63,26,0.00,40.00,5,2,12,0.00
2013-5-14,86,69,53,56,52,48,86,59,35,0.00,40.00,8,4,19,0.00
2013-5-15,85,72,61,56,52,48,82,52,28,0.00,40.00,8,4,19,0.00
2013-5-16,82,62,62,63,35,-100,88,66,39,0.00,40.00,6,2,13,0.00
2013-5-17,76,66,64,71,57,-100,100,93,81,0.00,40.00,4,2,11,2.35
2013-5-18,84,73,64,74,69,64,100,89,63,0.00,40.00,4,2,10,0.04
2013-5-19,88,78,70,72,69,66,100,77,52,0.00,40.00,6,4,17,0.01
2013-5-20,87,77,68,72,69,67,100,80,55,0.00,40.00,5,3,13,0.01
2013-5-21,79,70,65,70,67,64,100,90,72,0.00,40.00,8,3,25,2.02
2013-5-22,79,68,62,67,64,61,99,88,55,0.00,40.00,5,3,17,1.58
2013-5-23,81,70,60,62,59,55,100,72,46,0.00,40.00,6,3,15,0.00
2013-5-24,75,63,53,55,50,43,90,66,38,0.00,40.00,6,4,14,0.00
2013-5-25,79,64,49,55,50,47,98,66,38,0.00,40.00,4,2,9,0.00
2013-5-26,85,69,52,61,55,50,95,66,34,0.00,40.00,4,2,11,0.00
2013-5-27,85,71,60,65,60,55,90,70,36,0.00,40.00,6,2,18,0.00
2013-5-28,87,76,66,67,61,56,83,62,35,0.00,40.00,7,4,15,0.00
2013-5-29,87,75,61,68,62,56,89,67,44,0.00,40.00,6,3,15,0.00
2013-5-30,85,76,70,72,68,66,99,78,60,0.00,40.00,6,4,17,0.25
2013-5-31,84,75,67,74,70,66,99,87,67,0.00,40.00,6,3,15,0.94
2013-6-1,80,73,67,73,69,66,99,86,78,0.00,40.00,7,4,33,0.35
2013-6-2,79,71,63,68,66,62,100,86,61,0.00,40.00,4,2,11,0.01
2013-6-3,81,68,59,64,61,59,99,81,50,0.00,40.00,6,2,14,0.00
2013-6-4,86,72,57,66,61,56,99,72,43,0.00,40.00,4,2,9,0.00
2013-6-5,85,72,64,73,67,62,95,85,62,0.00,40.00,5,2,12,0.02
2013-6-6,83,72,65,70,67,65,99,84,61,0.00,40.00,6,2,14,0.04
2013-6-7,81,70,59,66,63,58,95,80,52,0.00,40.00,5,2,13,0.01
2013-6-8,85,70,55,65,58,51,99,71,31,0.00,40.00,3,1,9,0.00
2013-6-9,85,71,61,72,66,57,98,85,60,0.00,40.00,6,3,20,1.50
2013-6-10,87,78,67,72,68,67,100,75,52,0.00,40.00,7,4,18,0.98
2013-6-11,95,82,69,78,72,68,97,74,51,0.00,40.00,5,3,14,0.00
2013-6-12,92,83,70,75,73,69,99,75,54,0.00,40.00,5,3,16,0.00
2013-6-13,91,81,67,75,70,64,92,72,49,0.00,40.00,8,4,19,0.00
2013-6-14,84,73,60,66,61,56,99,71,43,0.00,40.00,6,3,16,0.00
2013-6-15,88,74,60,71,64,59,98,73,44,0.00,40.00,4,2,10,0.00
2013-6-16,87,76,66,74,69,64,95,79,58,0.00,40.00,4,2,12,0.00
2013-6-17,84,75,68,75,70,67,98,88,65,0.00,40.00,6,2,15,0.16
2013-6-18,85,73,68,72,69,66,99,87,57,0.00,40.00,5,2,10,0.17
2013-6-19,91,77,65,71,67,64,99,77,41,0.00,40.00,3,1,9,0.00
2013-6-20,92,77,66,72,68,65,99,77,45,0.00,40.00,3,2,8,0.00
2013-6-22,89,83,70,71,69,67,92,63,49,0.00,40.00,5,3,12,0.00
2013-6-23,90,78,65,73,68,64,98,75,48,0.00,40.00,5,2,12,0.00
2013-6-24,91,80,69,75,71,68,98,76,50,0.00,40.00,5,2,11,0.00
2013-6-25,89,80,71,74,72,70,98,79,57,0.00,40.00,5,3,11,0.00
2013-6-26,90,81,70,74,71,69,97,75,55,0.00,40.00,7,4,16,0.00
2013-6-27,97,86,77,78,73,70,86,66,45,0.00,40.00,5,4,15,0.00
2013-6-28,88,77,69,76,71,68,97,84,59,0.00,40.00,8,3,20,0.27
2013-6-29,87,78,65,71,63,58,98,65,38,0.00,40.00,6,3,14,0.01
2013-6-30,81,70,60,65,62,58,96,78,53,0.00,40.00,6,2,13,0.00
2013-7-1,75,68,63,68,64,62,98,89,74,0.00,40.00,4,2,14,0.25
2013-7-2,82,70,62,66,63,61,98,81,52,0.00,40.00,5,3,11,0.02
2013-7-3,86,72,59,69,63,59,99,78,44,0.00,40.00,3,2,9,0.00
2013-7-4,82,73,65,73,68,64,98,85,66,0.00,40.00,6,2,14,0.02
2013-7-5,84,71,65,71,68,64,99,90,64,0.00,40.00,3,2,10,1.75
2013-7-6,88,74,68,72,69,67,99,86,54,0.00,40.00,4,2,12,1.65
2013-7-7,92,78,69,74,70,68,99,81,50,0.00,40.00,4,2,10,0.02
2013-7-8,90,75,69,75,69,-100,99,87,57,0.00,40.00,5,2,10,0.00
2013-7-9,93,81,70,75,73,70,99,79,52,0.00,40.00,5,2,11,0.00
2013-7-10,93,81,73,79,71,-100,96,77,57,0.00,40.00,5,2,11,0.00
2013-7-11,91,82,73,78,72,64,98,76,50,0.00,40.00,5,2,13,0.00
2013-7-12,86,74,62,65,62,60,93,69,46,0.00,40.00,6,3,15,0.00
2013-7-13,85,73,59,67,61,58,97,71,46,0.00,40.00,5,3,15,0.00
2013-7-14,83,74,68,73,69,63,97,84,64,0.00,40.00,5,2,17,0.05
2013-7-15,87,77,71,76,72,70,98,86,64,0.00,40.00,6,3,14,0.22
2013-7-16,92,88,73,72,71,69,95,59,49,0.00,40.00,5,3,13,0.11
2013-7-17,95,82,70,77,72,69,97,76,48,0.00,40.00,4,2,9,0.00
2013-7-18,91,78,70,77,73,69,98,86,57,0.00,40.00,4,2,10,0.07
2013-7-19,89,78,67,75,72,67,99,83,60,0.00,40.00,5,2,12,0.07
2013-7-20,91,79,70,73,70,-100,98,77,54,0.00,40.00,5,3,12,0.00
2013-7-21,88,77,70,77,72,68,95,86,61,0.00,40.00,5,2,12,0.12
2013-7-22,82,74,67,75,71,66,98,92,78,0.00,40.00,6,3,25,0.55
2013-7-23,87,76,71,74,72,69,97,87,60,0.00,40.00,7,3,17,0.12
2013-7-24,84,77,70,75,71,67,98,83,67,0.00,40.00,4,2,9,0.01
2013-7-25,84,72,62,68,64,61,96,76,49,0.00,40.00,6,2,13,0.01
2013-7-26,83,72,60,69,64,59,98,79,51,0.00,40.00,4,2,9,0.00
2013-7-27,85,75,67,71,67,65,97,78,53,0.00,40.00,4,2,11,0.00
2013-7-28,79,71,63,67,62,58,94,75,51,0.00,40.00,4,2,9,0.00
2013-7-29,86,71,61,67,62,59,95,76,44,0.00,40.00,4,2,9,0.00
2013-7-30,79,73,66,76,69,62,96,86,69,0.00,40.00,3,2,10,0.05
2013-7-31,86,76,70,76,73,69,98,89,68,0.00,40.00,5,2,12,0.30
2013-8-1,86,74,67,72,69,66,99,85,55,0.00,40.00,6,2,12,0.04
2013-8-2,89,76,64,71,66,63,98,75,44,0.00,40.00,4,2,9,0.01
2013-8-3,78,74,68,74,70,65,98,89,79,0.00,40.00,6,2,12,0.64
2013-8-4,87,77,69,74,70,67,99,83,59,0.00,40.00,4,2,11,0.14
2013-8-5,78,72,68,73,68,63,98,87,73,0.00,40.00,4,2,9,0.07
2013-8-6,80,76,71,75,73,70,98,92,78,0.00,40.00,5,2,12,0.22
2013-8-7,91,80,72,79,74,71,97,85,62,0.00,40.00,3,2,9,0.04
2013-8-8,94,82,74,79,75,73,98,82,55,0.00,40.00,6,2,11,0.00
2013-8-9,94,82,72,77,74,71,97,80,55,0.00,40.00,5,3,12,0.00
2013-8-10,88,80,72,75,73,71,97,82,58,0.00,40.00,5,2,11,0.00
2013-8-11,85,76,70,76,73,69,98,89,73,0.00,40.00,4,1,10,0.14
2013-8-12,91,78,71,77,73,70,98,86,59,0.00,40.00,5,2,18,0.78
2013-8-13,85,75,70,73,68,-100,98,85,63,0.00,40.00,4,2,10,0.75
2013-8-14,78,70,60,68,60,56,95,74,50,0.00,40.00,6,4,15,0.00
2013-8-15,81,61,54,65,47,-100,97,74,49,0.00,40.00,4,2,11,0.00
2013-8-16,79,67,62,67,60,-100,97,85,66,0.00,40.00,4,2,10,0.00
2013-8-17,80,70,64,68,63,-100,98,83,63,0.00,40.00,5,2,12,0.00
2013-8-18,82,70,63,70,65,62,98,86,63,0.00,40.00,3,1,7,0.00
2013-8-19,86,69,63,72,57,-100,98,82,56,0.00,40.00,4,2,11,0.00
2013-8-20,90,74,67,76,68,-100,98,87,53,0.00,40.00,4,2,9,0.21
2013-8-21,90,78,68,74,70,67,98,81,47,0.00,40.00,5,2,11,0.21
2013-8-22,91,80,70,76,72,69,98,81,52,0.00,40.00,5,2,10,0.00
2013-8-23,91,79,68,75,70,67,98,79,49,0.00,40.00,4,2,11,0.00
2013-8-24,91,78,69,72,68,-100,97,76,52,0.00,40.00,5,2,12,0.00
2013-8-25,89,78,71,72,70,69,96,81,52,0.00,40.00,5,2,10,0.00
2013-8-26,89,76,66,69,66,63,97,76,44,0.00,40.00,5,2,10,0.00
2013-8-27,88,73,63,66,63,61,96,75,46,0.00,40.00,4,2,10,0.00
2013-8-28,92,86,70,68,66,64,92,56,40,0.00,40.00,5,3,11,0.00
2013-8-29,94,80,68,74,69,66,96,74,45,0.00,40.00,5,2,11,0.00
2013-8-30,95,82,70,73,70,67,97,72,40,0.00,40.00,5,2,11,0.00
2013-8-31,97,81,70,75,68,-100,96,71,39,0.00,40.00,5,2,15,0.00
2013-9-1,80,74,71,73,70,68,97,89,74,0.00,40.00,5,2,15,0.82
2013-9-2,88,77,71,75,73,70,97,87,66,0.00,40.00,7,2,15,0.25
2013-9-3,86,75,65,70,65,59,98,76,40,0.00,40.00,5,2,13,0.24
2013-9-4,85,72,62,68,64,61,98,78,48,0.00,40.00,4,2,11,0.00
2013-9-5,86,72,61,67,64,60,98,77,47,0.00,40.00,4,2,13,0.00
2013-9-6,90,75,64,67,63,55,96,72,32,0.00,40.00,4,2,8,0.00
2013-9-7,93,76,65,71,64,-100,98,74,39,0.00,40.00,4,1,9,0.00
2013-9-8,94,79,66,73,68,65,96,72,39,0.00,40.00,4,2,9,0.00
2013-9-9,94,79,70,73,70,67,93,75,43,0.00,40.00,4,2,13,0.01
2013-9-10,93,78,70,72,70,68,97,77,44,0.00,40.00,7,2,17,0.96
2013-9-11,89,77,70,77,72,69,98,86,56,0.00,40.00,3,1,7,0.96
2013-9-12,91,77,68,72,70,67,97,80,49,0.00,40.00,4,2,10,0.00
2013-9-13,79,72,59,70,60,53,96,70,40,0.00,40.00,6,3,16,0.00
2013-9-14,75,61,50,55,49,-100,95,71,43,0.00,40.00,6,2,14,0.00
2013-9-15,86,64,52,61,54,51,97,77,32,0.00,40.00,4,1,8,0.00
2013-9-16,87,71,57,66,59,55,96,70,36,0.00,40.00,5,2,11,0.00
2013-9-17,88,75,65,69,65,63,96,75,46,0.00,40.00,4,2,8,0.00
2013-9-18,71,69,68,67,66,66,97,92,83,0.00,40.00,2,2,7,0.00
2013-9-19,90,76,66,68,66,65,97,76,44,0.00,40.00,5,2,14,0.00
2013-9-20,82,73,66,73,68,63,97,84,62,0.00,40.00,6,2,14,2.80
2013-9-21,75,66,55,68,57,-100,97,78,46,0.00,40.00,7,3,14,2.31
2013-9-22,76,62,50,57,52,49,98,75,42,0.00,40.00,6,2,13,0.01
2013-9-23,82,66,52,61,56,51,96,75,44,0.00,40.00,4,2,10,0.00
2013-9-24,73,67,60,69,65,59,97,93,86,0.00,40.00,4,2,11,0.00
2013-9-25,83,73,67,70,68,66,98,84,57,0.00,40.00,4,1,8,0.00
2013-9-26,82,71,62,69,65,61,98,84,57,0.00,40.00,5,2,9,0.00
2013-9-27,85,70,59,67,63,58,97,80,45,0.00,40.00,4,1,8,0.00
2013-9-28,81,67,58,62,56,-100,98,75,45,0.00,40.00,6,2,13,0.00
2013-9-29,67,63,59,63,60,57,97,90,78,0.00,40.00,4,2,12,0.92
2013-9-30,68,65,63,66,63,62,97,95,89,0.00,40.00,4,2,12,0.24
2013-10-1,71,69,67,69,68,66,97,96,94,0.00,40.00,0,0,1,0.01
2013-10-2,82,72,66,70,67,65,98,85,58,0.00,40.00,5,1,10,0.01
2013-10-3,85,73,64,70,67,63,98,82,54,0.00,40.00,5,2,13,0.00
2013-10-4,84,73,65,72,69,64,97,86,64,0.00,40.00,5,2,13,0.00
2013-10-5,85,76,69,72,70,68,97,84,61,0.00,40.00,5,2,14,0.00
2013-10-6,75,62,53,70,56,47,96,83,57,0.00,40.00,5,2,14,0.83
2013-10-7,67,54,43,54,48,42,97,80,52,0.00,40.00,6,2,14,0.02
2013-10-8,73,58,47,55,49,46,96,76,45,0.00,40.00,5,2,13,0.00
2013-10-9,74,63,52,64,58,50,97,84,68,0.00,40.00,4,2,12,0.00
2013-10-10,81,67,58,67,61,57,98,83,50,0.00,40.00,3,1,7,0.00
2013-10-11,81,67,57,63,60,56,98,81,48,0.00,40.00,4,1,7,0.00
2013-10-12,77,65,57,69,60,-100,98,89,71,0.00,40.00,3,1,15,0.19
2013-10-13,78,67,61,66,63,58,98,87,62,0.00,40.00,6,2,11,0.01
2013-10-14,81,66,55,67,59,51,94,78,49,0.00,40.00,4,2,8,0.01
2013-10-15,73,67,65,66,63,61,97,86,71,0.00,40.00,6,2,13,0.17
2013-10-16,65,61,57,64,60,56,98,96,92,0.00,40.00,4,1,12,0.41
2013-10-17,68,58,48,56,54,48,100,88,54,0.00,40.00,4,2,9,0.04
2013-10-18,69,54,45,55,49,45,100,86,49,0.00,40.00,3,1,6,0.01
2013-10-19,56,50,40,53,46,-100,100,90,65,0.00,40.00,6,2,12,0.05
2013-10-20,67,48,36,47,40,36,100,81,36,0.00,40.00,4,1,9,0.01
2013-10-21,72,54,40,53,46,40,100,78,39,0.00,40.00,6,2,11,0.00
2013-10-22,67,55,49,53,48,43,99,79,43,0.00,40.00,5,3,14,0.04
2013-10-23,58,48,39,46,40,36,99,77,44,0.00,40.00,6,3,15,0.01
2013-10-24,62,48,36,45,40,34,100,76,45,0.00,40.00,6,2,14,0.00
2013-10-25,54,39,29,34,30,28,99,75,37,0.00,40.00,5,2,11,0.00
2013-10-26,63,46,31,46,35,-100,97,70,41,0.00,40.00,6,2,13,0.00
2013-10-27,68,58,48,61,54,46,99,87,67,0.00,40.00,4,2,10,0.02
2013-10-28,70,59,53,60,55,-100,100,92,61,0.00,40.00,4,2,9,0.10
2013-10-29,74,62,52,66,60,52,100,92,69,0.00,40.00,4,2,10,0.01
2013-10-30,74,66,60,66,62,60,99,87,68,0.00,40.00,6,3,13,0.00
2013-10-31,69,67,63,68,64,58,99,94,73,0.00,40.00,10,6,24,0.44
2013-11-1,73,60,48,58,48,40,100,71,32,0.00,40.00,6,3,17,0.14
2013-11-2,62,51,41,46,41,-100,99,72,46,0.00,40.00,8,3,17,0.00
2013-11-3,62,46,36,45,38,34,100,78,35,0.00,40.00,4,2,11,0.00
2013-11-4,66,52,39,46,42,37,93,70,41,0.00,40.00,5,2,17,0.00
2013-11-5,70,58,49,51,45,39,87,63,44,0.00,40.00,6,4,15,0.00
2013-11-6,64,57,45,61,52,44,100,82,65,0.00,40.00,7,4,23,0.37
2013-11-7,56,45,37,44,35,29,97,73,37,0.00,40.00,7,4,18,0.18
2013-11-8,63,45,32,39,35,32,100,74,32,0.00,40.00,4,1,9,0.00
2013-11-9,60,47,39,43,37,-100,92,71,40,0.00,40.00,4,2,12,0.00
2013-11-10,69,54,42,47,40,32,100,62,28,0.00,40.00,5,2,11,0.00
2013-11-11,72,54,38,43,36,31,82,55,25,0.00,40.00,5,2,9,0.00
2013-11-12,55,41,30,45,29,18,89,63,34,0.00,40.00,9,6,25,0.00
2013-11-13,51,34,24,23,20,15,89,60,25,0.00,40.00,4,2,12,0.00
2013-11-14,58,39,26,22,19,15,77,49,19,0.00,40.00,6,2,13,0.00
2013-11-15,59,48,38,52,40,22,94,76,51,0.00,40.00,5,2,11,0.02
2013-11-16,65,59,54,63,56,-100,100,93,90,0.00,40.00,6,4,23,0.01
2013-11-17,73,66,53,69,64,53,100,95,86,0.00,40.00,8,6,25,0.70
2013-11-18,64,52,42,53,37,28,99,60,33,0.00,40.00,6,3,15,0.35
2013-11-19,51,42,34,30,27,23,80,58,34,0.00,40.00,5,2,11,0.00
2013-11-20,64,47,31,38,32,27,91,61,32,0.00,40.00,6,3,19,0.00
2013-11-21,67,56,45,59,49,38,100,78,60,0.00,40.00,7,4,15,0.39
2013-11-22,60,54,45,60,53,42,100,97,90,0.00,40.00,7,4,15,0.76
2013-11-23,46,40,28,42,28,-100,91,67,36,0.00,40.00,10,6,23,0.08
2013-11-24,37,28,21,16,14,11,71,55,34,0.00,40.00,8,4,22,0.00
2013-11-25,38,33,29,35,24,12,99,71,45,0.00,40.00,4,2,9,0.17
2013-11-26,38,36,34,37,34,25,100,93,63,0.00,40.00,7,4,21,0.17
2013-11-27,36,28,18,25,14,10,84,58,38,0.00,40.00,7,5,21,0.01
2013-11-28,47,30,14,18,15,12,92,59,28,0.00,40.00,5,2,11,0.00
2013-11-29,57,39,26,29,24,18,78,58,32,0.00,40.00,5,1,11,0.00
2013-11-30,59,43,30,30,25,-100,87,55,26,0.00,40.00,5,2,16,0.00
2013-12-1,58,50,39,43,36,28,76,59,48,0.00,40.00,4,3,8,0.00
2013-12-2,61,54,48,53,49,43,99,84,70,0.00,40.00,5,2,10,0.00
2013-12-3,61,56,52,58,54,52,100,95,82,0.00,40.00,5,3,11,0.00
2013-12-4,76,67,59,63,61,58,97,81,55,0.00,40.00,10,5,22,0.00
2013-12-5,67,51,35,66,49,34,98,94,86,0.00,40.00,7,5,15,1.35
2013-12-6,35,32,26,34,31,25,98,97,94,0.00,40.00,6,5,19,1.74
2013-12-7,29,25,23,28,22,-100,96,91,91,0.00,40.00,6,4,13,0.19
2013-12-8,35,33,28,34,33,27,100,99,96,0.00,40.00,3,2,7,0.78
2013-12-9,36,32,29,33,29,26,100,88,77,0.00,40.00,5,3,13,0.01
2013-12-10,42,32,25,28,25,21,98,78,53,0.00,40.00,4,2,11,0.04
2013-12-11,48,32,21,31,25,20,98,78,44,0.00,40.00,6,3,14,0.01
2013-12-12,45,30,17,22,16,11,94,60,27,0.00,40.00,5,2,10,0.00
2013-12-13,48,35,25,36,21,14,96,59,29,0.00,40.00,8,3,16,0.14
2013-12-14,44,40,36,44,36,-100,100,92,83,0.00,40.00,8,5,18,0.81
2013-12-15,38,32,28,31,28,26,96,83,70,0.00,40.00,6,3,16,0.01
2013-12-16,60,42,27,35,32,26,98,70,36,0.00,40.00,7,4,17,0.00
2013-12-17,60,47,36,37,34,31,83,62,41,0.00,40.00,7,3,18,0.00
2013-12-18,58,43,27,31,27,24,94,58,30,0.00,40.00,5,3,12,0.00
2013-12-19,58,52,43,48,42,31,80,68,57,0.00,40.00,7,4,17,0.00
2013-12-20,65,61,58,62,57,48,95,87,70,0.00,40.00,7,6,18,0.00
2013-12-21,76,68,61,67,60,-100,99,81,64,0.00,40.00,11,8,39,1.53
2013-12-22,61,52,40,61,49,35,100,92,79,0.00,40.00,8,4,15,1.56
2013-12-23,40,33,24,35,27,22,93,77,58,0.00,40.00,5,4,13,0.00
2013-12-24,35,27,23,23,16,10,93,65,36,0.00,40.00,6,2,13,0.00
2013-12-25,49,33,19,25,17,13,79,55,28,0.00,40.00,5,2,11,0.00
2013-12-26,49,36,27,30,25,21,98,69,35,0.00,40.00,5,2,12,0.00
2013-12-27,57,39,25,26,24,22,89,58,27,0.00,40.00,4,1,7,0.00
2013-12-28,46,39,35,41,30,-100,100,73,56,0.00,40.00,3,2,9,0.16
2013-12-29,56,45,35,42,39,29,100,81,54,0.00,40.00,7,4,16,0.26
2013-12-30,35,30,24,30,24,22,94,78,73,0.00,40.00,5,3,13,0.04
2013-12-31,50,33,21,28,24,19,95,74,37,0.00,40.00,3,2,8,0.00
2014-1-1,55,39,25,43,30,24,97,74,37,0.00,40.00,6,3,12,0.02
2014-1-2,47,32,20,47,27,9,100,80,57,0.00,40.00,9,6,23,0.25